Altus AFB, OK

11:52 AM CST on December 12, 2019 (GMT -0600)
Altus Air Force Base

Weather History for KLTS - August, 2019

Change the Weather History Date:

Saturday, August 24, 2019

  Actual Average Record
Temperature  
Mean Temperature 80 °F -  
Max Temperature 91 °F 93 °F 108 °F (2011)
Min Temperature 70 °F 69 °F 62 °F (2015)
Cooling Degree Days 16    
Growing Degree Days 30 (Base 50)    
Moisture  
Dew Point 66 °F    
Average Humidity 66    
Maximum Humidity 84    
Minimum Humidity 42    
Precipitation  
Precipitation 0.00 in - - ()
Sea Level Pressure  
Sea Level Pressure 29.91 in    
Wind  
Wind Speed 6 mph ()    
Max Wind Speed 15 mph    
Max Gust Speed -    
Visibility 10.0 miles    
Events      
Averages and records for this station are not official NWS values.
T = Trace of Precipitation, MM = Missing Value Source: Averaged Metar Reports

Daily Weather History Graph

Daily Weather History Graph

Search for Another Location

Airport or City:

Astronomy

Aug. 24, 2019 Rise Set
Actual Time 7:04 AM CDT 8:14 PM CDT
Civil Twilight 6:38 AM CDT 8:40 PM CDT
Nautical Twilight 6:06 AM CDT 9:11 PM CDT
Astronomical Twilight 5:34 AM CDT 9:43 PM CDT
Moon 1:03 AM CDT (8/24) 3:25 PM CDT (8/24)
Length of Visible Light 14h 02m
Length of Day
13h 10m
Last Quarter, 39% of the Moon is Illuminated
Aug 24
Last Quarter
Aug 30
New
Sep 5
First Quarter
Sep 13
Full
Sep 21
Last Quarter

Hourly Weather History & Observations

Time (CDT) Temp. Heat Index Dew Point Humidity Pressure Visibility Wind Dir Wind Speed Gust Speed Precip Events Conditions
12:56 AM 74.7 °F - 66.6 °F 76% 29.96 in 10.0 mi SE 10.4 mph - N/A   Partly Cloudy
1:56 AM 72.3 °F - 67.1 °F 84% 29.94 in 10.0 mi SSE 4.6 mph - N/A   Clear
2:56 AM 73.8 °F - 67.5 °F 81% 29.99 in 10.0 mi NW 5.8 mph - N/A   Mostly Cloudy
3:11 AM 73.4 °F - 68.0 °F 83% 29.99 in 10.0 mi North 8.1 mph - N/A   Mostly Cloudy
3:56 AM 74.3 °F - 64.6 °F 72% 29.97 in 10.0 mi Calm Calm - N/A   Overcast
4:56 AM 74.5 °F - 60.6 °F 62% 29.96 in 10.0 mi West 8.1 mph - N/A   Mostly Cloudy
5:26 AM 73.4 °F - 60.8 °F 65% 29.94 in 10.0 mi West 5.8 mph - N/A   Partly Cloudy
5:56 AM 70.9 °F - 64.4 °F 80% 29.92 in 10.0 mi Calm Calm - N/A   Clear
6:56 AM 70.5 °F - 63.0 °F 77% 29.85 in 10.0 mi ESE 6.9 mph - N/A   Partly Cloudy
7:56 AM 72.3 °F - 66.6 °F 82% 29.89 in 10.0 mi Calm Calm - N/A   Clear
8:56 AM 74.3 °F - 67.3 °F 79% 29.94 in 10.0 mi NNW 8.1 mph - N/A   Partly Cloudy
9:56 AM 76.3 °F - 65.7 °F 70% 29.96 in 10.0 mi North 4.6 mph - N/A   Clear
10:56 AM 79.7 °F - 66.9 °F 65% 29.96 in 10.0 mi SW 3.5 mph - N/A   Partly Cloudy
11:56 AM 82.8 °F 85.5 °F 67.8 °F 60% 29.96 in 10.0 mi Calm Calm - N/A   Partly Cloudy
12:56 PM 83.5 °F 86.4 °F 68.0 °F 59% 29.93 in 10.0 mi SE 3.5 mph - N/A   Clear
1:56 PM 86.0 °F 89.1 °F 67.8 °F 54% 29.92 in 10.0 mi South 5.8 mph - N/A   Clear
2:56 PM 88.5 °F 91.6 °F 66.9 °F 49% 29.88 in 10.0 mi SE 5.8 mph - N/A   Clear
3:56 PM 90.1 °F 92.3 °F 65.3 °F 44% 29.85 in 10.0 mi South 4.6 mph - N/A   Clear
4:56 PM 91.2 °F 93.3 °F 65.5 °F 42% 29.83 in 10.0 mi SSE 9.2 mph - N/A   Clear
5:56 PM 90.9 °F 94.0 °F 66.6 °F 45% 29.83 in 10.0 mi SSE 10.4 mph - N/A   Clear
6:56 PM 89.6 °F 93.0 °F 67.3 °F 48% 29.83 in 10.0 mi SSE 10.4 mph - N/A   Clear
7:56 PM 84.9 °F 88.8 °F 68.9 °F 59% 29.84 in 10.0 mi SSE 6.9 mph - N/A   Clear
8:56 PM 81.7 °F 84.2 °F 67.3 °F 61% 29.85 in 10.0 mi SE 8.1 mph - N/A   Clear
9:56 PM 81.0 °F 83.8 °F 68.0 °F 65% 29.87 in 10.0 mi SE 13.8 mph - N/A   Clear
10:56 PM 79.7 °F - 70.2 °F 73% 29.87 in 10.0 mi SE 15.0 mph - N/A   Clear
11:56 PM 77.5 °F - 70.2 °F 78% 29.87 in 10.0 mi SSE 11.5 mph - N/A   Clear